Lafayette, CO

1:25 AM MDT on July 25, 2016 (GMT -0600)
Erie Municipal Airport

Weather History for KEIK - March, 2013

Change the Weather History Date:

Sunday, March 10, 2013

  Actual Average (KBDU) Record (KBDU)
Temperature  
Mean Temperature 27 °F -  
Max Temperature 41 °F - 71 °F (2014)
Min Temperature 13 °F - 30 °F (2016)
Degree Days  
Heating Degree Days 38    
Month to date heating degree days  
Cooling Degree Days 0    
Month to date cooling degree days  
Moisture  
Dew Point 17 °F    
Average Humidity 64    
Maximum Humidity 92    
Minimum Humidity 30    
Precipitation  
Precipitation 0.00 in - 0.00 in (2016)
Sea Level Pressure  
Sea Level Pressure 30.07 in    
Wind  
Wind Speed 3 mph (South)    
Max Wind Speed 12 mph    
Max Gust Speed -    
Visibility 10 miles    
Events      
T = Trace of Precipitation, MM = Missing Value Source: NWS Daily Summary

Daily Weather History Graph

Daily Weather History Graph

Search for Another Location

Airport or City:

Trip Planner

Search our weather history database for the weather conditions in past years. The results will help you decide how hot, cold, wet, or windy it might be!

Date:

Astronomy

Mar. 10, 2013 Rise Set
Actual Time 7:19 AM MDT 7:02 PM MDT
Civil Twilight 6:52 AM MDT 7:29 PM MDT
Nautical Twilight 6:20 AM MDT 8:00 PM MDT
Astronomical Twilight 5:49 AM MDT 8:32 PM MDT
Moon 6:20 AM MDT (3/10) 6:12 PM MDT (3/10)
Length of Visible Light 12h 36m
Length of Day
11h 42m
Waning Crescent, 1% of the Moon is Illuminated
Mar 10
Waning Crescent
Mar 11
New
Mar 19
First Quarter
Mar 27
Full
Apr 2
Last Quarter

Hourly Weather History & Observations

Time (MDT) Temp. Windchill Dew Point Humidity Pressure Visibility Wind Dir Wind Speed Gust Speed Precip Events Conditions
12:16 AM 21.7 °F - 17.1 °F 82% 30.06 in 10.0 mi Calm Calm - N/A   Mostly Cloudy
12:36 AM 21.4 °F - 16.9 °F 83% 30.06 in 10.0 mi Calm Calm - N/A   Scattered Clouds
12:56 AM 19.0 °F - 16.2 °F 89% 30.07 in 10.0 mi Calm Calm - N/A   Clear
1:16 AM 17.6 °F - 15.4 °F 91% 30.08 in 10.0 mi Calm Calm - N/A   Clear
1:36 AM 15.8 °F - 13.8 °F 92% 30.08 in 10.0 mi Calm Calm - N/A   Clear
1:56 AM 18.9 °F - 14.0 °F 81% 30.08 in 10.0 mi Calm Calm - N/A   Clear
3:16 AM 16.7 °F - 12.2 °F 82% 30.08 in 10.0 mi Calm Calm - N/A   Clear
3:36 AM 19.0 °F 13.9 °F 12.6 °F 76% 30.07 in 10.0 mi NNE 3.5 mph - N/A   Clear
3:56 AM 19.9 °F 13.4 °F 13.8 °F 77% 30.07 in 10.0 mi NNE 4.6 mph - N/A   Clear
4:16 AM 17.6 °F 12.3 °F 12.7 °F 81% 30.07 in 10.0 mi WNW 3.5 mph - N/A   Clear
4:36 AM 21.7 °F - 14.7 °F 74% 30.08 in 10.0 mi Calm Calm - N/A   Clear
4:56 AM 21.2 °F - 14.2 °F 74% 30.08 in 10.0 mi Calm Calm - N/A   Clear
5:16 AM 17.8 °F 8.5 °F 12.4 °F 79% 30.09 in 10.0 mi SW 6.9 mph - N/A   Clear
5:36 AM 17.2 °F 8.9 °F 11.7 °F 79% 30.10 in 10.0 mi ESE 5.8 mph - N/A   Clear
6:36 AM 13.5 °F 4.4 °F 9.7 °F 85% 30.10 in 10.0 mi SSW 5.8 mph - N/A   Clear
6:56 AM 13.3 °F 2.0 °F 10.0 °F 87% 30.10 in 10.0 mi SSW 8.1 mph - N/A   Clear
7:16 AM 14.5 °F 7.1 °F 10.4 °F 84% 30.10 in 10.0 mi SSW 4.6 mph - N/A   Clear
7:36 AM 13.1 °F 5.4 °F 9.1 °F 84% 30.10 in 10.0 mi SW 4.6 mph - N/A   Clear
7:56 AM 15.3 °F 7.9 °F 11.7 °F 86% 30.10 in 10.0 mi SSW 4.6 mph - N/A   Clear
8:16 AM 18.1 °F 12.9 °F 12.9 °F 80% 30.11 in 10.0 mi South 3.5 mph - N/A   Unknown
8:36 AM 19.2 °F - 13.5 °F 78% 30.12 in 10.0 mi Calm Calm - N/A   Clear
8:56 AM 20.3 °F 13.8 °F 13.8 °F 76% 30.11 in 10.0 mi SSE 4.6 mph - N/A   Clear
9:16 AM 23.0 °F 18.4 °F 14.7 °F 71% 30.11 in 10.0 mi SSW 3.5 mph - N/A   Clear
9:36 AM 25.5 °F 19.9 °F 15.8 °F 67% 30.11 in 10.0 mi South 4.6 mph - N/A   Clear
9:56 AM 26.6 °F 22.6 °F 15.4 °F 63% 30.12 in 10.0 mi South 3.5 mph - N/A   Clear
10:16 AM 28.2 °F 21.0 °F 17.2 °F 63% 30.11 in 10.0 mi SSW 6.9 mph - N/A   Clear
10:36 AM 29.5 °F 23.4 °F 17.8 °F 62% 30.11 in 10.0 mi South 5.8 mph - N/A   Clear
10:56 AM 30.7 °F 26.0 °F 18.7 °F 61% 30.11 in 10.0 mi South 4.6 mph - N/A   Clear
11:16 AM 32.0 °F 26.4 °F 16.9 °F 54% 30.10 in 10.0 mi South 5.8 mph - N/A   Clear
11:36 AM 33.1 °F 28.7 °F 15.8 °F 49% 30.10 in 10.0 mi South 4.6 mph - N/A   Clear
11:56 AM 33.8 °F 30.8 °F 11.1 °F 39% 30.09 in 10.0 mi South 3.5 mph - N/A   Clear
12:16 PM 35.1 °F - 9.3 °F 34% 30.09 in 10.0 mi Calm Calm - N/A   Clear
12:36 PM 35.8 °F 33.0 °F 10.9 °F 36% 30.08 in 10.0 mi South 3.5 mph - N/A   Clear
12:56 PM 37.6 °F - 10.4 °F 33% 30.08 in 10.0 mi Calm Calm - N/A   Clear
1:16 PM 37.4 °F - 10.6 °F 33% 30.08 in 10.0 mi Calm Calm - N/A   Clear
1:36 PM 37.4 °F 33.8 °F 10.6 °F 33% 30.07 in 10.0 mi South 4.6 mph - N/A   Clear
1:56 PM 38.1 °F 34.6 °F 11.3 °F 33% 30.07 in 10.0 mi SSW 4.6 mph - N/A   Clear
2:16 PM 39.2 °F - 9.7 °F 30% 30.07 in 10.0 mi Calm Calm - N/A   Clear
2:36 PM 39.6 °F 37.4 °F 13.3 °F 34% 30.06 in 10.0 mi SSW 3.5 mph - N/A   Clear
2:56 PM 41.0 °F - 14.2 °F 34% 30.06 in 10.0 mi Calm Calm - N/A   Clear
3:16 PM 41.4 °F 35.7 °F 17.6 °F 38% 30.06 in 10.0 mi SE 9.2 mph - N/A   Clear
3:36 PM 39.4 °F 32.7 °F 25.2 °F 57% 30.07 in 10.0 mi SE 10.4 mph - N/A   Clear
3:56 PM 39.0 °F 31.8 °F 25.5 °F 58% 30.07 in 10.0 mi SE 11.5 mph - N/A   Clear
4:16 PM 38.8 °F 32.6 °F 25.7 °F 59% 30.07 in 10.0 mi SE 9.2 mph - N/A   Clear
4:36 PM 39.0 °F 33.4 °F 25.3 °F 58% 30.07 in 10.0 mi SSE 8.1 mph - N/A   Clear
4:56 PM 39.4 °F 32.7 °F 25.2 °F 57% 30.07 in 10.0 mi SSE 10.4 mph - N/A   Clear
5:16 PM 39.7 °F 33.7 °F 25.5 °F 57% 30.05 in 10.0 mi South 9.2 mph - N/A   Clear
5:36 PM 40.3 °F 36.3 °F 25.0 °F 54% 30.05 in 10.0 mi SE 5.8 mph - N/A   Clear
5:56 PM 40.1 °F 38.0 °F 25.5 °F 56% 30.05 in 10.0 mi SSE 3.5 mph - N/A   Clear
6:16 PM 41.0 °F - 25.9 °F 55% 30.05 in 10.0 mi Calm Calm - N/A   Clear
6:36 PM 39.6 °F - 25.7 °F 58% 30.05 in 10.0 mi Calm Calm - N/A   Clear
6:56 PM 38.1 °F 35.7 °F 23.9 °F 57% 30.05 in 10.0 mi South 3.5 mph - N/A   Clear
7:16 PM 36.5 °F 32.7 °F 22.8 °F 58% 30.05 in 10.0 mi SSW 4.6 mph - N/A   Clear
7:36 PM 37.4 °F - 21.7 °F 53% 30.05 in 10.0 mi Calm Calm - N/A   Clear
7:56 PM 35.2 °F - 23.0 °F 61% 30.05 in 10.0 mi Calm Calm - N/A   Clear
8:16 PM 33.6 °F 30.6 °F 23.0 °F 65% 30.05 in 10.0 mi South 3.5 mph - N/A   Clear
8:36 PM 32.9 °F 27.5 °F 23.4 °F 68% 30.05 in 10.0 mi South 5.8 mph - N/A   Clear
8:56 PM 32.0 °F 28.7 °F 23.5 °F 71% 30.04 in 10.0 mi South 3.5 mph - N/A   Clear
9:16 PM 32.9 °F 29.8 °F 23.0 °F 67% 30.03 in 10.0 mi South 3.5 mph - N/A   Clear
9:36 PM 32.0 °F 26.4 °F 23.0 °F 69% 30.03 in 10.0 mi SSW 5.8 mph - N/A   Clear
9:56 PM 32.5 °F - 22.5 °F 66% 30.03 in 10.0 mi Calm Calm - N/A   Clear
10:16 PM 30.7 °F - 22.3 °F 71% 30.03 in 10.0 mi Calm Calm - N/A   Clear
10:36 PM 30.2 °F - 22.5 °F 73% 30.02 in 10.0 mi Calm Calm - N/A   Clear
11:16 PM 30.9 °F 26.2 °F 21.9 °F 69% 30.02 in 10.0 mi SSW 4.6 mph - N/A   Clear
11:36 PM 30.9 °F 26.2 °F 21.9 °F 69% 30.01 in 10.0 mi SSW 4.6 mph - N/A   Clear
11:56 PM 29.1 °F 25.4 °F 21.6 °F 73% 30.00 in 10.0 mi SSW 3.5 mph - N/A   Clear
12:16 AM 30.6 °F 24.7 °F 21.7 °F 70% 29.99 in 10.0 mi South 5.8 mph - N/A   Clear
12:56 AM 30.2 °F 24.3 °F 21.6 °F 70% 29.98 in 10.0 mi WSW 5.8 mph - N/A   Clear